Regional Weather Roundup
Issued by NWS Upton, NY

Current Version | Previous Version | Graphics & Text | Print | Product List | Glossary Off
Versions: 1 2 3 4 5 6 7 8 9 10 11 12 13 14 15 16 17 18 19 20 21 22 23 24 25 26 27 28 29 30 31 32 33 34 35 36 37 38 39 40 41 42 43 44 45 46 47 48 49 50

742
ASUS41 KOKX 271909
RWROKX

REGIONAL WEATHER ROUNDUP
NATIONAL WEATHER SERVICE NEW YORK NY
300 PM EDT TUE JUN 27 2017

NOTE: "FAIR" INDICATES FEW OR NO CLOUDS BELOW 12,000 FEET WITH NO
SIGNIFICANT WEATHER AND/OR OBSTRUCTIONS TO VISIBILITY.

NYZ071-072-176-178-NJZ106-104-272000-
NEW YORK CITY METRO AREA

CITY           SKY/WX    TMP DP  RH WIND       PRES   REMARKS
Central Park   MOSUNNY   76  57  51 VRB3      29.95F
Bronx Bot Gard   N/A     77  50  38 W6        29.95R
LaGuardia APRT MOSUNNY   78  54  43 SW10      29.92F
Kennedy INTL   MOSUNNY   75  60  59 S10       29.94F
Breezy Point     N/A     68 N/A N/A SE8         N/A
Newark/Liberty LGT RAIN  74  59  59 SW14G21   29.93F
Teterboro      SUNNY     76  52  43 W12       29.91F
$$

NYZ177-179-078>081-272000-
LONG ISLAND NEW YORK

CITY           SKY/WX    TMP DP  RH WIND       PRES   REMARKS
Jones Beach      N/A     68 N/A N/A S9          N/A
Matinecock PT    N/A    N/A N/A N/A SW10        N/A
Farmingdale    SUNNY     73  61  64 S13       29.96F
MacArthur/ISP  MOSUNNY   75  60  59 S10       29.93F
Shirley        MOSUNNY   74  62  66 S12       29.95F
Mt Sinai Harb    N/A    N/A N/A N/A E5          N/A
Westhampton    SUNNY     73  61  65 S9        29.97F
East Hampton   FAIR      72  64  73 S9G16     29.96S
Montauk          N/A     72  61  68 S7        29.97F
$$

NYZ052-065-067-272000-
HUDSON VALLEY

CITY           SKY/WX    TMP DP  RH WIND       PRES   REMARKS
White Plains   MOSUNNY   75  51  43 SW9G20    29.93F
Larchmont Harb   N/A     72 N/A N/A SE8         N/A
Croton O-T Hud   N/A     75 N/A N/A SW6         N/A
Newburgh       MOSUNNY   75  55  50 W16       29.93F
Montgomery     MOSUNNY   76  50  40 SW14      29.91F
Poughkeepsie   SUNNY     74  52  46 W6        29.90F
Albany         PTSUNNY   69  54  58 SE3       29.90F THUNDER
$$

NJZ001-105-106-008-010-013-015-019>022-104-272000-
NEW JERSEY

CITY           SKY/WX    TMP DP  RH WIND       PRES   REMARKS
Newark/Liberty LGT RAIN  74  59  59 SW14G21   29.93F
Teterboro      SUNNY     76  52  43 W12       29.91F
Caldwell       SUNNY     78  48  34 SW9       29.94F
Somerville     PTSUNNY   75  53  46 W6        29.92F
Linden         LGT RAIN  72  58  61 W6        29.93F
Perth Amboy      N/A     72 N/A N/A NW14        N/A
Sussex         MOSUNNY   75  53  46 SW8G17    29.94F
Andover          N/A     74  49  41 SW13G21   29.94F
Trenton        MOSUNNY   75  55  49 SW10      29.96F
Millville      MOSUNNY   78  54  43 W10       29.97F
Atlantic City  MOSUNNY   81  54  39 W9        29.97S
Wrightstown    PTSUNNY   77  53  43 NW14G20   29.93S
Toms River     MOSUNNY   83  51  33 SW14G20   29.96F
Belmar         MOSUNNY   78  56  46 SE9       29.95F
$$

PAZ047>061-062-071-272000-
EASTERN PENNSYLVANIA

CITY           SKY/WX    TMP DP  RH WIND       PRES   REMARKS
Philadelphia   MOSUNNY   79  51  37 SW14G20   29.96F
Allentown      SUNNY     77  51  40 W14G21    29.95F
Scranton       PTSUNNY   69  48  47 SW13G23   29.96F
$$

CTZ002-004>006-009-010-012-RIZ004-006-007-MAZ004-011-015-272000-
SOUTHERN NEW ENGLAND
 IN CT

CITY           SKY/WX    TMP DP  RH WIND       PRES   REMARKS
Bradley INTL   TSTM      65  53  65 W13       29.93S
Hartford       MOSUNNY   76  59  55 S12G20    29.91F
Danbury        PTSUNNY   70  56  61 NW5       29.94F
Wtrbury/Oxford PTSUNNY   72  54  53 S10G17    29.94F
Bridgeport     SUNNY     73  58  59 S7        29.93F
Meriden        SUNNY     74  56  53 S14G21    29.93F
New Haven      SUNNY     73  57  57 S8        29.94F
Chester        FAIR      73  61  64 S7G14     29.95F
Groton         MOSUNNY   71  63  75 S15       29.94F
Wilimantic     PTSUNNY   75  60  59 S15       29.94F

 IN RI

CITY           SKY/WX    TMP DP  RH WIND       PRES   REMARKS
Providence     PTSUNNY   74  63  68 SW22      29.96F
Block Island   CLOUDY    70  57  63 S13       29.97F
Westerly       CLOUDY    71  63  75 S12       29.97F
 IN MA

CITY           SKY/WX    TMP DP  RH WIND       PRES   REMARKS
Boston         PTSUNNY   76  56  49 S17       29.92F
Worcester      TSTM      61  56  83 S6        29.94F
Westfield      CLOUDY    61  56  83 S16G24    29.93S THUNDER
Provincetown   CLOUDY    70  61  73 S13G21    29.97F
Nantucket      PTSUNNY   69  63  81 S13       30.02R
$$

ANZ330-335-338-340-345-350-353-355-272000-
COASTAL MARINE OBSERVATIONS


STATION/POSITION TIME  SKY/WX   TEMP    WIND        PRES    VSBY  WAVE
                                AIR SEA DIR/SP/G                  HT/PER
                 (UTC)          (F)     (DEG/KT/KT) (MB)    (MI)  (FT/S)
NY HARB ENTRANCE 1750            66 70   70/  4/  4 1014.8          1/ 8
20 S FIRE ISLAND 1850            69 71  240/  4/  4 1014.3          2/ 7
GREAT SOUTH BAY  1830            70 77  190/  8/ 10   N/A
23 SSW MONTAUK P 1750            68 66              1015.2          2/ 8
15 E BARNEGAT LI 1830               69                N/A           2/ 7
HUDSON CANYON    1750            70 68  180/ 10/ 12 1014.9          2/ 7
KINGS POINT      1830            73 65  290/ 10/ 15 1013.5
EXECUTION ROCKS  1845            73     170/  6/ 10   N/A
CENTRAL LI SOUND NOT AVBL
EASTERN LI SOUND NOT AVBL
ROBBINS REEF     1830                   160/ 11/ 13 1014.4
$$


>>>>>>>>>>>>>>>>>>>>>>>>>>>> KEY <<<<<<<<<<<<<<<<<<<<<<<<<<<
>                                                          <
>     SKY/WX - Sky Condition/Present Weather               <
>     TMP    - Temperature in Fahrenheit                   <
>     DP     - Dew Point in Fahrenheit                     <
>     RH     - Relative Humidity in Percent                <
>     WIND   - Direction (from) and Speed in MPH           <
>     PRES   - Mean Sea Level Pressure (inches of Hg)      <
>     WCI    - Wind Chill Index                            <
>     VSB    - VISIBILITY IN MILES                         <
>     HX     - HEAT INDEX                                  <
>     TC     - TEMPERATURE IN CELSIUS                      <
>     VRB    - VARIABLE WIND DIRECTION                     <
>                                                          <
>>>>>>>>>>>>>>>>>>>>>>>>>>>> KEY <<<<<<<<<<<<<<<<<<<<<<<<<<<




USA.gov is the U.S. government's official web portal to all federal, state and local government web resources and services.